FDX986 KTUS-KPDX

Flight info

Callsign FDX986
Flight time 2h 23m
Altitude 36000
Route WLDKT4 BBALL PXR FLG GCN BERYL ELY REO JOTBA HHOOD6
Aircraft B77L/H-SDE1E2E3FGHIJ2J3J4J5M1RWXY/LB1D1

Departure

Time 2026-05-06 03:06
Airport Tucson International Airport (KTUS)

Arrival

Time 2026-05-06 05:29
Airport Portland International Airport (KPDX)
Time Latitude Longitude Altitude Speed Heading
2026-05-06 02:22 32.11573 -110.93002 2626 ft 0 kts 135°
2026-05-06 02:49 32.11583 -110.93014 2626 ft 4 kts 135°
2026-05-06 02:50 32.11599 -110.93032 2625 ft 4 kts 149°
2026-05-06 02:50 32.11617 -110.93040 2625 ft 4 kts 194°
2026-05-06 02:50 32.11636 -110.93027 2625 ft 4 kts 226°
2026-05-06 02:50 32.11653 -110.93006 2625 ft 2 kts 225°
2026-05-06 02:51 32.11655 -110.93004 2625 ft 0 kts 225°
2026-05-06 02:53 32.11648 -110.93011 2625 ft 3 kts 225°
2026-05-06 02:54 32.11634 -110.93028 2625 ft 3 kts 225°
2026-05-06 02:54 32.11621 -110.93044 2625 ft 3 kts 224°
2026-05-06 02:54 32.11607 -110.93060 2625 ft 3 kts 224°
2026-05-06 02:54 32.11593 -110.93076 2625 ft 3 kts 225°
2026-05-06 02:55 32.11572 -110.93101 2624 ft 8 kts 225°
2026-05-06 02:55 32.11531 -110.93151 2624 ft 9 kts 225°
2026-05-06 02:55 32.11488 -110.93201 2623 ft 9 kts 225°
2026-05-06 02:55 32.11443 -110.93254 2621 ft 10 kts 225°
2026-05-06 02:56 32.11392 -110.93315 2620 ft 11 kts 225°
2026-05-06 02:56 32.11331 -110.93349 2621 ft 10 kts 176°
2026-05-06 02:56 32.11277 -110.93302 2623 ft 10 kts 136°
2026-05-06 02:56 32.11228 -110.93245 2625 ft 10 kts 134°
2026-05-06 02:57 32.11180 -110.93188 2625 ft 10 kts 135°
2026-05-06 02:57 32.11132 -110.93132 2625 ft 10 kts 135°
2026-05-06 02:57 32.11082 -110.93075 2626 ft 10 kts 136°
2026-05-06 02:57 32.11033 -110.93019 2629 ft 10 kts 135°
2026-05-06 02:58 32.10985 -110.92961 2630 ft 10 kts 134°
2026-05-06 02:58 32.10937 -110.92904 2631 ft 10 kts 135°
2026-05-06 02:58 32.10889 -110.92847 2633 ft 10 kts 135°
2026-05-06 02:58 32.10840 -110.92790 2637 ft 10 kts 135°
2026-05-06 02:59 32.10791 -110.92733 2640 ft 10 kts 135°
2026-05-06 02:59 32.10742 -110.92677 2642 ft 10 kts 135°
2026-05-06 02:59 32.10694 -110.92621 2644 ft 10 kts 135°
2026-05-06 02:59 32.10645 -110.92563 2647 ft 10 kts 135°
2026-05-06 03:00 32.10597 -110.92506 2649 ft 10 kts 135°
2026-05-06 03:00 32.10549 -110.92449 2650 ft 10 kts 135°
2026-05-06 03:00 32.10501 -110.92392 2651 ft 10 kts 135°
2026-05-06 03:00 32.10452 -110.92335 2660 ft 10 kts 135°
2026-05-06 03:01 32.10404 -110.92278 2663 ft 10 kts 135°
2026-05-06 03:01 32.10358 -110.92226 2661 ft 8 kts 135°
2026-05-06 03:01 32.10348 -110.92214 2655 ft 0 kts 134°
2026-05-06 03:03 32.10333 -110.92195 2646 ft 5 kts 134°
2026-05-06 03:03 32.10301 -110.92188 2662 ft 5 kts 196°
2026-05-06 03:03 32.10273 -110.92211 2667 ft 5 kts 220°
2026-05-06 03:04 32.10249 -110.92240 2664 ft 5 kts 227°
2026-05-06 03:04 32.10228 -110.92271 2668 ft 5 kts 244°
2026-05-06 03:04 32.10236 -110.92311 2664 ft 8 kts 301°
2026-05-06 03:04 32.10383 -110.92494 2655 ft 64 kts 315°
2026-05-06 03:05 32.10863 -110.93061 2633 ft 129 kts 315°
2026-05-06 03:05 32.11627 -110.93964 2604 ft 179 kts 314°
2026-05-06 03:05 32.11925 -110.94307 2611 ft 189 kts 316°
2026-05-06 03:05 32.12150 -110.94553 2682 ft 190 kts 314°
2026-05-06 03:06 32.13102 -110.95601 3201 ft 194 kts 314°
2026-05-06 03:06 32.14098 -110.96667 3806 ft 196 kts 315°
2026-05-06 03:06 32.15138 -110.97782 4137 ft 212 kts 312°
2026-05-06 03:06 32.16204 -110.99078 4351 ft 236 kts 311°
2026-05-06 03:07 32.17374 -111.00526 4826 ft 249 kts 311°
2026-05-06 03:07 32.18597 -111.02026 5465 ft 257 kts 312°
2026-05-06 03:07 32.19855 -111.03560 6150 ft 263 kts 311°
2026-05-06 03:07 32.21124 -111.05105 6706 ft 260 kts 312°
2026-05-06 03:08 32.22242 -111.06443 7275 ft 263 kts 316°
2026-05-06 03:08 32.23809 -111.07627 7852 ft 273 kts 332°
2026-05-06 03:08 32.25558 -111.08588 8479 ft 281 kts 333°
2026-05-06 03:08 32.27326 -111.09554 9268 ft 282 kts 333°
2026-05-06 03:09 32.29125 -111.10543 9962 ft 287 kts 332°
2026-05-06 03:09 32.30966 -111.11562 10429 ft 300 kts 332°
2026-05-06 03:09 32.32931 -111.12660 10610 ft 326 kts 332°
2026-05-06 03:09 32.35058 -111.13856 10803 ft 350 kts 332°
2026-05-06 03:10 32.37336 -111.15140 11106 ft 371 kts 332°
2026-05-06 03:10 32.39702 -111.16474 11678 ft 383 kts 331°
2026-05-06 03:10 32.42137 -111.17849 12463 ft 391 kts 330°
2026-05-06 03:10 32.44611 -111.19246 13342 ft 397 kts 330°
2026-05-06 03:11 32.47088 -111.20648 14153 ft 402 kts 329°
2026-05-06 03:11 32.49615 -111.22079 15033 ft 404 kts 329°
2026-05-06 03:11 32.52146 -111.23514 15982 ft 404 kts 328°
2026-05-06 03:11 32.54690 -111.24958 16853 ft 406 kts 328°
2026-05-06 03:12 32.57258 -111.26419 17687 ft 410 kts 328°
2026-05-06 03:12 32.59836 -111.27886 18457 ft 414 kts 327°
2026-05-06 03:12 32.62448 -111.29375 19125 ft 418 kts 327°
2026-05-06 03:12 32.65075 -111.30872 19770 ft 422 kts 326°
2026-05-06 03:13 32.67740 -111.32393 20403 ft 426 kts 326°
2026-05-06 03:13 32.70421 -111.33922 21060 ft 430 kts 325°
2026-05-06 03:13 32.73133 -111.35470 21700 ft 434 kts 324°
2026-05-06 03:13 32.75869 -111.37033 22313 ft 438 kts 324°
2026-05-06 03:14 32.78630 -111.38613 22875 ft 443 kts 323°
2026-05-06 03:14 32.81418 -111.40204 23609 ft 445 kts 323°
2026-05-06 03:14 32.83279 -111.41267 23945 ft 447 kts 323°
2026-05-06 03:14 32.86097 -111.42881 24389 ft 453 kts 322°
2026-05-06 03:15 32.88946 -111.44514 24856 ft 458 kts 322°
2026-05-06 03:15 32.91832 -111.46168 25354 ft 461 kts 322°
2026-05-06 03:15 32.94702 -111.47879 25854 ft 459 kts 319°
2026-05-06 03:15 32.97401 -111.49861 26334 ft 454 kts 313°
2026-05-06 03:16 32.99887 -111.52126 26796 ft 447 kts 307°
2026-05-06 03:16 33.02238 -111.54556 27260 ft 449 kts 306°
2026-05-06 03:16 33.04598 -111.57019 27766 ft 452 kts 306°
2026-05-06 03:16 33.06972 -111.59493 28265 ft 455 kts 306°
2026-05-06 03:17 33.09368 -111.61978 28723 ft 458 kts 306°
2026-05-06 03:17 33.11791 -111.64481 29137 ft 462 kts 306°
2026-05-06 03:17 33.14232 -111.66994 29558 ft 465 kts 306°
2026-05-06 03:17 33.16559 -111.69384 30059 ft 465 kts 305°
2026-05-06 03:18 33.18985 -111.71872 30536 ft 464 kts 306°
2026-05-06 03:18 33.21420 -111.74368 31177 ft 459 kts 306°
2026-05-06 03:18 33.23830 -111.76844 31714 ft 456 kts 305°
2026-05-06 03:18 33.26232 -111.79324 32158 ft 455 kts 306°
2026-05-06 03:19 33.28495 -111.81664 32610 ft 454 kts 306°
2026-05-06 03:19 33.30886 -111.84137 33083 ft 453 kts 306°
2026-05-06 03:19 33.33259 -111.86594 33511 ft 452 kts 306°
2026-05-06 03:19 33.35640 -111.89059 33901 ft 452 kts 306°
2026-05-06 03:20 33.40476 -111.93909 34443 ft 466 kts 314°
2026-05-06 03:20 33.43065 -111.95463 34550 ft 496 kts 329°
2026-05-06 03:20 33.46249 -111.96358 34816 ft 520 kts 343°
2026-05-06 03:21 33.49941 -111.96264 35148 ft 539 kts 358°
2026-05-06 03:21 33.53653 -111.95635 35493 ft 541 kts
2026-05-06 03:21 33.57372 -111.94901 35826 ft 541 kts
2026-05-06 03:21 33.61104 -111.94145 35948 ft 545 kts
2026-05-06 03:22 33.68577 -111.92716 35977 ft 540 kts
2026-05-06 03:22 33.75957 -111.91424 35976 ft 533 kts 360°
2026-05-06 03:23 33.83276 -111.90193 35959 ft 531 kts 360°
2026-05-06 03:23 33.90536 -111.88969 35948 ft 530 kts
2026-05-06 03:24 33.97808 -111.87731 35940 ft 525 kts
2026-05-06 03:24 34.05084 -111.86491 35957 ft 531 kts
2026-05-06 03:25 34.12426 -111.85229 35961 ft 533 kts
2026-05-06 03:25 34.19742 -111.83965 35965 ft 531 kts
2026-05-06 03:26 34.27038 -111.82706 35966 ft 527 kts
2026-05-06 03:26 34.34307 -111.81450 35963 ft 526 kts
2026-05-06 03:27 34.41544 -111.80197 35964 ft 524 kts
2026-05-06 03:27 34.48744 -111.78949 35973 ft 523 kts
2026-05-06 03:28 34.55964 -111.77695 36004 ft 524 kts
2026-05-06 03:28 34.63121 -111.76450 36017 ft 522 kts
2026-05-06 03:29 34.70303 -111.75198 36052 ft 522 kts
2026-05-06 03:29 34.77495 -111.73942 36080 ft 523 kts
2026-05-06 03:30 34.84714 -111.72675 36066 ft 524 kts
2026-05-06 03:30 34.91948 -111.71406 36071 ft 525 kts
2026-05-06 03:31 34.99175 -111.70134 36079 ft 525 kts
2026-05-06 03:31 35.06385 -111.68866 36101 ft 522 kts
2026-05-06 03:32 35.13542 -111.68393 36106 ft 507 kts 348°
2026-05-06 03:32 35.20260 -111.70401 36097 ft 489 kts 330°
2026-05-06 03:33 35.26366 -111.73953 36090 ft 485 kts 328°
2026-05-06 03:33 35.32412 -111.77555 36066 ft 483 kts 329°
2026-05-06 03:34 35.38482 -111.81103 36042 ft 485 kts 330°
2026-05-06 03:34 35.44550 -111.84613 36020 ft 484 kts 330°
2026-05-06 03:35 35.50640 -111.88137 36025 ft 484 kts 330°
2026-05-06 03:35 35.56731 -111.91670 36017 ft 485 kts 330°
2026-05-06 03:36 35.62825 -111.95214 36018 ft 484 kts 331°
2026-05-06 03:36 35.68901 -111.98755 36024 ft 481 kts 331°
2026-05-06 03:37 35.74961 -112.02290 36032 ft 483 kts 331°
2026-05-06 03:37 35.81028 -112.05832 36035 ft 484 kts 332°
2026-05-06 03:38 35.87137 -112.09405 36036 ft 486 kts 332°
2026-05-06 03:38 35.93264 -112.12993 36093 ft 489 kts 332°
2026-05-06 03:39 35.99393 -112.16643 36088 ft 488 kts 331°
2026-05-06 03:39 36.05436 -112.20416 36080 ft 486 kts 331°
2026-05-06 03:40 36.11395 -112.24172 36050 ft 481 kts 331°
2026-05-06 03:40 36.17395 -112.27936 36025 ft 479 kts 332°
2026-05-06 03:41 36.23293 -112.31628 35997 ft 477 kts 332°
2026-05-06 03:41 36.29215 -112.35336 35973 ft 475 kts 333°
2026-05-06 03:42 36.35087 -112.39022 35969 ft 471 kts 333°
2026-05-06 03:42 36.40931 -112.42700 35960 ft 471 kts 334°
2026-05-06 03:43 36.46771 -112.46377 35963 ft 471 kts 334°
2026-05-06 03:43 36.52632 -112.50070 35949 ft 473 kts 334°
2026-05-06 03:44 36.58508 -112.53780 35942 ft 474 kts 334°
2026-05-06 03:44 36.64410 -112.57514 35934 ft 476 kts 335°
2026-05-06 03:45 36.70284 -112.61239 35917 ft 477 kts 335°
2026-05-06 03:45 36.76226 -112.65015 35919 ft 476 kts 335°
2026-05-06 03:46 36.82130 -112.68771 35938 ft 476 kts 335°
2026-05-06 03:46 36.87986 -112.72502 35959 ft 475 kts 335°
2026-05-06 03:47 36.93850 -112.76251 35973 ft 473 kts 335°
2026-05-06 03:47 36.99709 -112.79998 36000 ft 472 kts 335°
2026-05-06 03:48 37.05546 -112.83735 35992 ft 471 kts 335°
2026-05-06 03:48 37.11389 -112.87486 35991 ft 471 kts 335°
2026-05-06 03:49 37.17206 -112.91227 35956 ft 469 kts 335°
2026-05-06 03:49 37.23014 -112.94968 35936 ft 468 kts 335°
2026-05-06 03:50 37.28812 -112.98710 35904 ft 468 kts 336°
2026-05-06 03:50 37.34557 -113.02426 35886 ft 466 kts 336°
2026-05-06 03:51 37.40358 -113.06178 35908 ft 466 kts 336°
2026-05-06 03:51 37.45911 -113.09780 35926 ft 465 kts 336°
2026-05-06 03:52 37.51643 -113.13505 35951 ft 463 kts 336°
2026-05-06 03:52 37.57365 -113.17230 35972 ft 462 kts 336°
2026-05-06 03:53 37.63074 -113.20952 35980 ft 461 kts 336°
2026-05-06 03:53 37.68764 -113.24671 35988 ft 460 kts 336°
2026-05-06 03:54 37.74455 -113.28395 35967 ft 460 kts 336°
2026-05-06 03:54 37.80126 -113.32111 35936 ft 460 kts 336°
2026-05-06 03:55 37.85810 -113.35843 35905 ft 459 kts 336°
2026-05-06 03:55 37.91339 -113.39912 35873 ft 463 kts 328°
2026-05-06 03:56 37.96399 -113.45000 35851 ft 464 kts 325°
2026-05-06 03:56 38.01387 -113.50180 35849 ft 463 kts 325°
2026-05-06 03:57 38.06375 -113.55332 35851 ft 462 kts 325°
2026-05-06 03:57 38.11371 -113.60465 35861 ft 462 kts 325°
2026-05-06 03:58 38.16364 -113.65597 35856 ft 461 kts 325°
2026-05-06 03:58 38.21351 -113.70730 35864 ft 461 kts 325°
2026-05-06 03:59 38.26327 -113.75863 35868 ft 459 kts 325°
2026-05-06 03:59 38.31289 -113.80990 35872 ft 459 kts 325°
2026-05-06 04:00 38.36236 -113.86111 35879 ft 458 kts 325°
2026-05-06 04:00 38.41139 -113.91198 35885 ft 457 kts 326°
2026-05-06 04:01 38.46062 -113.96314 35886 ft 456 kts 326°
2026-05-06 04:01 38.50975 -114.01425 35903 ft 457 kts 326°
2026-05-06 04:02 38.55090 -114.05720 35905 ft 456 kts 326°
2026-05-06 04:02 38.59996 -114.10847 35902 ft 455 kts 325°
2026-05-06 04:03 38.64888 -114.15965 35914 ft 454 kts 326°
2026-05-06 04:03 38.69764 -114.21075 35905 ft 452 kts 325°
2026-05-06 04:04 38.74591 -114.26146 35921 ft 451 kts 326°
2026-05-06 04:04 38.79436 -114.31243 35912 ft 450 kts 325°
2026-05-06 04:05 38.84262 -114.36334 35936 ft 449 kts 325°
2026-05-06 04:05 38.89084 -114.41424 35934 ft 449 kts 325°
2026-05-06 04:06 38.93907 -114.46523 35942 ft 449 kts 325°
2026-05-06 04:06 38.98720 -114.51626 35960 ft 449 kts 325°
2026-05-06 04:07 39.03546 -114.56752 35966 ft 449 kts 325°
2026-05-06 04:07 39.08366 -114.61880 36012 ft 450 kts 324°
2026-05-06 04:08 39.13194 -114.67024 36028 ft 452 kts 324°
2026-05-06 04:08 39.18037 -114.72196 36057 ft 452 kts 324°
2026-05-06 04:09 39.22875 -114.77375 36086 ft 452 kts 324°
2026-05-06 04:09 39.27724 -114.82569 36084 ft 453 kts 324°
2026-05-06 04:10 39.32737 -114.87437 36080 ft 450 kts 330°
2026-05-06 04:10 39.37954 -114.91912 36071 ft 450 kts 330°
2026-05-06 04:11 39.43180 -114.96388 36070 ft 451 kts 330°
2026-05-06 04:11 39.48404 -115.00897 36031 ft 452 kts 330°
2026-05-06 04:12 39.53634 -115.05440 36018 ft 453 kts 330°
2026-05-06 04:12 39.58835 -115.09970 36000 ft 453 kts 330°
2026-05-06 04:13 39.64097 -115.14563 35991 ft 453 kts 330°
2026-05-06 04:13 39.69296 -115.19108 35985 ft 453 kts 329°
2026-05-06 04:14 39.74514 -115.23678 35976 ft 452 kts 329°
2026-05-06 04:14 39.79736 -115.28260 35972 ft 451 kts 329°
2026-05-06 04:15 39.84942 -115.32837 35966 ft 451 kts 329°
2026-05-06 04:15 39.90099 -115.37378 35960 ft 450 kts 329°
2026-05-06 04:16 39.95314 -115.41978 35953 ft 449 kts 329°
2026-05-06 04:16 40.00454 -115.46521 35955 ft 450 kts 329°
2026-05-06 04:17 40.05635 -115.51109 35961 ft 450 kts 329°
2026-05-06 04:17 40.10817 -115.55705 35962 ft 451 kts 329°
2026-05-06 04:18 40.16024 -115.60333 35966 ft 451 kts 329°
2026-05-06 04:18 40.21222 -115.64963 35965 ft 452 kts 329°
2026-05-06 04:19 40.26399 -115.69583 35963 ft 452 kts 329°
2026-05-06 04:19 40.31600 -115.74232 35962 ft 452 kts 329°
2026-05-06 04:20 40.36792 -115.78882 35961 ft 452 kts 329°
2026-05-06 04:20 40.41998 -115.83552 35954 ft 452 kts 329°
2026-05-06 04:21 40.47192 -115.88223 35961 ft 452 kts 329°
2026-05-06 04:21 40.52386 -115.92901 35969 ft 453 kts 329°
2026-05-06 04:22 40.57583 -115.97591 35977 ft 453 kts 329°
2026-05-06 04:23 40.65372 -116.04638 35991 ft 453 kts 329°
2026-05-06 04:23 40.70572 -116.09354 35987 ft 453 kts 329°
2026-05-06 04:24 40.75762 -116.14069 35983 ft 453 kts 329°
2026-05-06 04:24 40.80957 -116.18798 35972 ft 453 kts 329°
2026-05-06 04:25 40.86134 -116.23520 35952 ft 452 kts 329°
2026-05-06 04:25 40.91301 -116.28243 35949 ft 451 kts 329°
2026-05-06 04:26 40.96416 -116.32926 35959 ft 450 kts 329°
2026-05-06 04:26 41.01568 -116.37653 35953 ft 450 kts 329°
2026-05-06 04:27 41.06715 -116.42383 35954 ft 450 kts 329°
2026-05-06 04:27 41.11862 -116.47123 35957 ft 450 kts 329°
2026-05-06 04:28 41.17013 -116.51875 35949 ft 451 kts 329°
2026-05-06 04:28 41.22169 -116.56642 35944 ft 452 kts 329°
2026-05-06 04:29 41.27342 -116.61435 35953 ft 453 kts 329°
2026-05-06 04:29 41.32508 -116.66230 35955 ft 453 kts 329°
2026-05-06 04:30 41.37649 -116.71010 35957 ft 454 kts 329°
2026-05-06 04:30 41.42831 -116.75840 35947 ft 455 kts 329°
2026-05-06 04:31 41.48019 -116.80684 35954 ft 455 kts 329°
2026-05-06 04:31 41.53218 -116.85548 35951 ft 456 kts 329°
2026-05-06 04:32 41.58409 -116.90416 35954 ft 456 kts 329°
2026-05-06 04:32 41.63565 -116.95259 35955 ft 456 kts 329°
2026-05-06 04:33 41.68750 -117.00139 35949 ft 455 kts 329°
2026-05-06 04:33 41.73923 -117.05019 35955 ft 455 kts 329°
2026-05-06 04:34 41.79089 -117.09900 35952 ft 454 kts 329°
2026-05-06 04:34 41.84246 -117.14783 35954 ft 453 kts 329°
2026-05-06 04:35 41.89397 -117.19671 35957 ft 453 kts 329°
2026-05-06 04:35 41.94536 -117.24556 35954 ft 453 kts 329°
2026-05-06 04:36 41.99677 -117.29454 35957 ft 453 kts 329°
2026-05-06 04:36 42.04787 -117.34330 35951 ft 453 kts 329°
2026-05-06 04:37 42.09929 -117.39249 35951 ft 454 kts 329°
2026-05-06 04:37 42.15078 -117.44184 35951 ft 454 kts 329°
2026-05-06 04:38 42.20224 -117.49126 35946 ft 455 kts 329°
2026-05-06 04:38 42.25382 -117.54091 35947 ft 455 kts 329°
2026-05-06 04:39 42.30540 -117.59065 35944 ft 456 kts 329°
2026-05-06 04:39 42.35706 -117.64057 35958 ft 457 kts 329°
2026-05-06 04:40 42.40878 -117.69066 35975 ft 457 kts 329°
2026-05-06 04:40 42.46050 -117.74085 35990 ft 457 kts 329°
2026-05-06 04:41 42.51218 -117.79113 36012 ft 457 kts 329°
2026-05-06 04:41 42.56388 -117.84150 36012 ft 457 kts 329°
2026-05-06 04:42 42.61553 -117.89190 36013 ft 457 kts 329°
2026-05-06 04:42 42.66681 -117.94197 36008 ft 457 kts 329°
2026-05-06 04:43 42.71843 -117.99247 35987 ft 456 kts 329°
2026-05-06 04:43 42.76989 -118.04293 35977 ft 456 kts 329°
2026-05-06 04:44 42.82130 -118.09346 35949 ft 456 kts 329°
2026-05-06 04:44 42.87263 -118.14403 35943 ft 455 kts 329°
2026-05-06 04:45 42.92388 -118.19463 35930 ft 454 kts 329°
2026-05-06 04:45 42.97494 -118.24517 35945 ft 453 kts 329°
2026-05-06 04:46 43.02602 -118.29574 35937 ft 453 kts 329°
2026-05-06 04:46 43.07700 -118.34639 35938 ft 452 kts 329°
2026-05-06 04:47 43.11932 -118.38852 35946 ft 452 kts 329°
2026-05-06 04:47 43.17852 -118.44754 35954 ft 453 kts 329°
2026-05-06 04:48 43.22122 -118.49022 35957 ft 453 kts 329°
2026-05-06 04:48 43.27172 -118.54079 35954 ft 453 kts 330°
2026-05-06 04:49 43.32254 -118.59179 35947 ft 452 kts 330°
2026-05-06 04:49 43.37329 -118.64282 35977 ft 452 kts 330°
2026-05-06 04:50 43.42392 -118.69385 36002 ft 451 kts 330°
2026-05-06 04:50 43.47450 -118.74493 36035 ft 450 kts 330°
2026-05-06 04:51 43.52498 -118.79601 36059 ft 450 kts 330°
2026-05-06 04:51 43.57534 -118.84708 36076 ft 449 kts 330°
2026-05-06 04:52 43.62546 -118.89802 36073 ft 449 kts 330°
2026-05-06 04:52 43.67575 -118.94923 36077 ft 449 kts 330°
2026-05-06 04:53 43.72613 -119.00066 36066 ft 449 kts 330°
2026-05-06 04:53 43.77628 -119.05196 36046 ft 449 kts 330°
2026-05-06 04:54 43.82657 -119.10350 36031 ft 449 kts 330°
2026-05-06 04:54 43.87689 -119.15517 36016 ft 450 kts 330°
2026-05-06 04:55 43.92712 -119.20689 36004 ft 449 kts 330°
2026-05-06 04:55 43.97727 -119.25865 36005 ft 449 kts 330°
2026-05-06 04:56 44.02739 -119.31046 35998 ft 449 kts 330°
2026-05-06 04:56 44.07740 -119.36226 36008 ft 448 kts 330°
2026-05-06 04:57 44.12742 -119.41420 36004 ft 448 kts 330°
2026-05-06 04:57 44.17696 -119.46576 36013 ft 448 kts 330°
2026-05-06 04:58 44.22682 -119.51776 36012 ft 447 kts 330°
2026-05-06 04:58 44.27666 -119.56982 35996 ft 448 kts 330°
2026-05-06 04:59 44.32643 -119.62195 35994 ft 447 kts 330°
2026-05-06 04:59 44.37617 -119.67416 36017 ft 447 kts 330°
2026-05-06 05:00 44.42592 -119.72650 36014 ft 448 kts 329°
2026-05-06 05:00 44.47582 -119.77910 36011 ft 449 kts 329°
2026-05-06 05:01 44.52573 -119.83188 36012 ft 449 kts 329°
2026-05-06 05:01 44.57555 -119.88464 35999 ft 449 kts 330°
2026-05-06 05:02 44.62548 -119.93758 35998 ft 450 kts 329°
2026-05-06 05:02 44.65043 -119.96408 35809 ft 453 kts 329°
2026-05-06 05:02 44.67582 -119.99104 35219 ft 458 kts 329°
2026-05-06 05:02 44.70106 -120.01798 34688 ft 453 kts 329°
2026-05-06 05:03 44.72597 -120.04460 34161 ft 449 kts 329°
2026-05-06 05:03 44.75077 -120.07114 33583 ft 445 kts 329°
2026-05-06 05:03 44.77522 -120.09733 33044 ft 440 kts 329°
2026-05-06 05:03 44.79924 -120.12302 32513 ft 436 kts 329°
2026-05-06 05:04 44.82324 -120.14873 32009 ft 432 kts 328°
2026-05-06 05:04 44.84704 -120.17425 31497 ft 428 kts 328°
2026-05-06 05:04 44.87064 -120.19957 31008 ft 424 kts 328°
2026-05-06 05:04 44.89404 -120.22471 30501 ft 421 kts 328°
2026-05-06 05:05 44.91726 -120.24968 30031 ft 418 kts 328°
2026-05-06 05:05 44.94040 -120.27459 29453 ft 415 kts 328°
2026-05-06 05:05 44.96319 -120.29916 28930 ft 412 kts 328°
2026-05-06 05:05 44.98589 -120.32366 28387 ft 409 kts 327°
2026-05-06 05:06 45.00844 -120.34800 27869 ft 406 kts 327°
2026-05-06 05:06 45.03085 -120.37223 27389 ft 404 kts 327°
2026-05-06 05:06 45.05307 -120.39628 26921 ft 401 kts 327°
2026-05-06 05:06 45.07513 -120.42019 26444 ft 398 kts 327°
2026-05-06 05:07 45.09702 -120.44393 25985 ft 395 kts 327°
2026-05-06 05:07 45.11879 -120.46756 25529 ft 393 kts 327°
2026-05-06 05:07 45.14047 -120.49110 25056 ft 391 kts 326°
2026-05-06 05:07 45.16132 -120.51468 24591 ft 389 kts 321°
2026-05-06 05:08 45.17810 -120.54499 24165 ft 393 kts 304°
2026-05-06 05:08 45.19111 -120.57892 23729 ft 392 kts 302°
2026-05-06 05:08 45.20390 -120.61312 23220 ft 391 kts 302°
2026-05-06 05:08 45.21663 -120.64710 22729 ft 389 kts 302°
2026-05-06 05:09 45.22938 -120.68088 22267 ft 387 kts 302°
2026-05-06 05:09 45.24214 -120.71444 21823 ft 384 kts 302°
2026-05-06 05:09 45.25482 -120.74763 21394 ft 382 kts 302°
2026-05-06 05:09 45.26749 -120.78072 20954 ft 380 kts 302°
2026-05-06 05:10 45.28007 -120.81353 20509 ft 377 kts 302°
2026-05-06 05:10 45.29257 -120.84615 20086 ft 376 kts 302°
2026-05-06 05:10 45.30486 -120.87828 19669 ft 374 kts 302°
2026-05-06 05:10 45.31723 -120.91066 19242 ft 373 kts 302°
2026-05-06 05:11 45.32958 -120.94301 18823 ft 372 kts 302°
2026-05-06 05:11 45.34190 -120.97533 18384 ft 372 kts 302°
2026-05-06 05:11 45.35420 -121.00761 17918 ft 371 kts 301°
2026-05-06 05:11 45.36648 -121.03988 17440 ft 370 kts 301°
2026-05-06 05:12 45.37867 -121.07199 17006 ft 368 kts 301°
2026-05-06 05:12 45.38983 -121.10469 16604 ft 366 kts 294°
2026-05-06 05:12 45.39822 -121.13870 16230 ft 362 kts 290°
2026-05-06 05:12 45.40558 -121.17270 15869 ft 358 kts 290°
2026-05-06 05:13 45.41282 -121.20637 15515 ft 353 kts 290°
2026-05-06 05:13 45.42014 -121.23947 15162 ft 348 kts 290°
2026-05-06 05:13 45.42754 -121.27210 14796 ft 346 kts 290°
2026-05-06 05:13 45.43501 -121.30450 14458 ft 344 kts 290°
2026-05-06 05:14 45.44251 -121.33678 14111 ft 342 kts 291°
2026-05-06 05:14 45.44996 -121.36893 13767 ft 340 kts 291°
2026-05-06 05:14 45.45723 -121.40033 13387 ft 337 kts 290°
2026-05-06 05:14 45.46451 -121.43182 13031 ft 332 kts 290°
2026-05-06 05:15 45.47166 -121.46288 12690 ft 327 kts 290°
2026-05-06 05:15 45.47872 -121.49349 12363 ft 323 kts 291°
2026-05-06 05:15 45.48565 -121.52364 12033 ft 320 kts 290°
2026-05-06 05:15 45.49258 -121.55384 11722 ft 319 kts 291°
2026-05-06 05:16 45.49948 -121.58387 11407 ft 319 kts 290°
2026-05-06 05:16 45.50639 -121.61396 11086 ft 320 kts 290°
2026-05-06 05:16 45.51328 -121.64401 10805 ft 317 kts 290°
2026-05-06 05:16 45.52009 -121.67381 10471 ft 314 kts 290°
2026-05-06 05:17 45.52683 -121.70329 10152 ft 311 kts 289°
2026-05-06 05:17 45.53152 -121.73298 9853 ft 305 kts 277°
2026-05-06 05:17 45.53289 -121.76274 9561 ft 300 kts 274°
2026-05-06 05:17 45.53358 -121.79221 9245 ft 296 kts 274°
2026-05-06 05:18 45.53432 -121.82147 8935 ft 292 kts 275°
2026-05-06 05:18 45.53524 -121.85007 8631 ft 287 kts 275°
2026-05-06 05:18 45.53631 -121.87839 8315 ft 283 kts 275°
2026-05-06 05:18 45.53742 -121.90624 8030 ft 278 kts 276°
2026-05-06 05:19 45.53850 -121.93351 7754 ft 274 kts 276°
2026-05-06 05:19 45.53955 -121.96042 7441 ft 267 kts 275°
2026-05-06 05:19 45.54057 -121.98617 7193 ft 261 kts 276°
2026-05-06 05:19 45.54164 -122.01208 6944 ft 255 kts 276°
2026-05-06 05:20 45.54134 -122.03686 6684 ft 248 kts 258°
2026-05-06 05:20 45.53416 -122.05835 6537 ft 240 kts 238°
2026-05-06 05:20 45.52439 -122.07739 6398 ft 234 kts 237°
2026-05-06 05:20 45.51502 -122.09614 6269 ft 230 kts 238°
2026-05-06 05:21 45.50575 -122.11471 6141 ft 229 kts 238°
2026-05-06 05:21 45.49657 -122.13309 6014 ft 227 kts 237°
2026-05-06 05:21 45.48746 -122.15135 5877 ft 226 kts 237°
2026-05-06 05:21 45.47837 -122.16952 5749 ft 223 kts 238°
2026-05-06 05:22 45.47242 -122.18916 5503 ft 213 kts 269°
2026-05-06 05:22 45.47243 -122.20972 5376 ft 209 kts 272°
2026-05-06 05:22 45.47233 -122.23063 5081 ft 208 kts 271°
2026-05-06 05:22 45.47218 -122.25069 4819 ft 203 kts 271°
2026-05-06 05:23 45.47205 -122.27060 4561 ft 196 kts 271°
2026-05-06 05:23 45.47192 -122.28947 4325 ft 188 kts 271°
2026-05-06 05:23 45.47979 -122.32374 3924 ft 186 kts 296°
2026-05-06 05:24 45.48567 -122.34019 3664 ft 185 kts 297°
2026-05-06 05:24 45.49162 -122.35589 3460 ft 176 kts 298°
2026-05-06 05:24 45.49743 -122.37085 3210 ft 166 kts 298°
2026-05-06 05:24 45.50286 -122.38483 3029 ft 163 kts 298°
2026-05-06 05:25 45.50837 -122.39896 2840 ft 164 kts 297°
2026-05-06 05:25 45.51399 -122.41334 2648 ft 167 kts 298°
2026-05-06 05:25 45.51962 -122.42775 2430 ft 166 kts 298°
2026-05-06 05:25 45.52520 -122.44206 2210 ft 164 kts 297°
2026-05-06 05:26 45.52949 -122.45308 2090 ft 159 kts 297°
2026-05-06 05:26 45.53474 -122.46652 1950 ft 151 kts 297°
2026-05-06 05:26 45.53972 -122.47931 1776 ft 147 kts 297°
2026-05-06 05:26 45.54472 -122.49211 1583 ft 148 kts 297°
2026-05-06 05:27 45.54964 -122.50476 1375 ft 149 kts 298°
2026-05-06 05:27 45.55470 -122.51773 1148 ft 150 kts 298°
2026-05-06 05:27 45.55978 -122.53077 930 ft 151 kts 299°
2026-05-06 05:27 45.56488 -122.54386 703 ft 151 kts 299°
2026-05-06 05:28 45.57000 -122.55684 509 ft 150 kts 300°
2026-05-06 05:28 45.57507 -122.56976 306 ft 149 kts 299°
2026-05-06 05:28 45.58010 -122.58266 107 ft 148 kts 299°
2026-05-06 05:28 45.58498 -122.59526 34 ft 136 kts 299°
2026-05-06 05:29 45.58885 -122.60522 31 ft 92 kts 299°
2026-05-06 05:29 45.59122 -122.61133 32 ft 48 kts 298°
2026-05-06 05:29 45.59278 -122.61530 30 ft 46 kts 300°
2026-05-06 05:29 45.59402 -122.61852 31 ft 27 kts 299°
2026-05-06 05:30 45.59474 -122.62038 30 ft 14 kts 298°
2026-05-06 05:30 45.59478 -122.62137 33 ft 10 kts 243°
2026-05-06 05:30 45.59423 -122.62200 32 ft 10 kts 212°
2026-05-06 05:30 45.59359 -122.62245 32 ft 10 kts 196°
2026-05-06 05:31 45.59301 -122.62198 32 ft 10 kts 121°
2026-05-06 05:31 45.59267 -122.62107 32 ft 10 kts 119°
2026-05-06 05:31 45.59231 -122.62017 31 ft 10 kts 120°
2026-05-06 05:31 45.59195 -122.61927 32 ft 10 kts 120°
2026-05-06 05:32 45.59160 -122.61837 32 ft 10 kts 120°
2026-05-06 05:32 45.59125 -122.61747 32 ft 10 kts 118°
2026-05-06 05:32 45.59091 -122.61657 32 ft 10 kts 119°
2026-05-06 05:32 45.59055 -122.61567 32 ft 10 kts 119°
2026-05-06 05:33 45.59020 -122.61477 32 ft 10 kts 120°
2026-05-06 05:33 45.58992 -122.61392 32 ft 10 kts 107°
2026-05-06 05:33 45.58981 -122.61291 32 ft 10 kts 91°
2026-05-06 05:33 45.58982 -122.61187 32 ft 10 kts 91°
2026-05-06 05:34 45.58972 -122.61086 32 ft 10 kts 106°
2026-05-06 05:34 45.58942 -122.60993 32 ft 10 kts 119°
2026-05-06 05:34 45.58905 -122.60903 31 ft 11 kts 120°
2026-05-06 05:34 45.58866 -122.60803 30 ft 12 kts 118°
2026-05-06 05:35 45.58838 -122.60734 31 ft 12 kts 127°
2026-05-06 05:35 45.58756 -122.60731 31 ft 10 kts 221°
2026-05-06 05:35 45.58710 -122.60799 32 ft 10 kts 226°
2026-05-06 05:35 45.58664 -122.60867 32 ft 10 kts 226°
2026-05-06 05:36 45.58617 -122.60936 32 ft 10 kts 226°
2026-05-06 05:36 45.58568 -122.61001 32 ft 10 kts 224°
2026-05-06 05:36 45.58522 -122.61069 32 ft 10 kts 225°
2026-05-06 05:36 45.58490 -122.61113 32 ft 10 kts 223°
2026-05-06 05:37 45.58442 -122.61179 32 ft 10 kts 225°
2026-05-06 05:37 45.58395 -122.61246 32 ft 10 kts 225°
2026-05-06 05:37 45.58347 -122.61315 32 ft 10 kts 225°
2026-05-06 05:37 45.58286 -122.61344 32 ft 10 kts 166°
2026-05-06 05:38 45.58234 -122.61283 30 ft 10 kts 134°
2026-05-06 05:38 45.58186 -122.61215 32 ft 10 kts 135°
2026-05-06 05:38 45.58137 -122.61147 32 ft 10 kts 135°
2026-05-06 05:38 45.58088 -122.61079 32 ft 10 kts 136°
2026-05-06 05:39 45.58050 -122.61026 31 ft 4 kts 136°
2026-05-06 05:39 45.58026 -122.61016 32 ft 4 kts 187°
2026-05-06 05:39 45.58002 -122.61037 32 ft 4 kts 217°
2026-05-06 05:39 45.57981 -122.61063 32 ft 2 kts 224°
2026-05-06 05:40 45.57972 -122.61075 32 ft 2 kts 223°
2026-05-06 05:40 45.57970 -122.61078 32 ft 0 kts 223°